Regional Weather Roundup
Issued by NWS

Home | Current Version | Previous Version | Graphics & Text | Print | Product List | Glossary On
Versions: 1 2 3 4 5 6 7 8 9 10 11 12 13 14 15 16 17 18 19 20 21 22 23 24 25 26 27 28 29 30 31 32 33 34 35 36 37 38 39 40 41 42 43 44 45 46 47 48 49 50
631
ASUS44 KLIX 310610
RWRLA
LOUISIANA WEATHER ROUNDUP
NATIONAL WEATHER SERVICE NEW ORLEANS LA
100 AM CDT FRI OCT 31 2014

NOTE: "FAIR" INDICATES FEW OR NO CLOUDS BELOW 12,000 FEET WITH NO
      SIGNIFICANT WEATHER AND/OR OBSTRUCTIONS TO VISIBILITY.
      SKY/WX - SKY CONDITION AND SIGNIFICANT WEATHER.
      TMP - AIR TEMPERATURE.    DP   - DEWPOINT TEMPERATURE.
      RH  - RELATIVE HUMIDITY.  PRES - PRESSURE.
      HX  - HEAT INDEX.         WCI  - WIND CHILL INDEX.

*  THESE STATIONS ARE NOT NWS OR FAA STATIONS AND ARE NOT UNDER
   NWS QUALITY CONTROL.

LAZ040-048-061>063-065-066-069-310700-
SOUTHEAST LOUISIANA

CITY           SKY/WX    TMP DP  RH WIND       PRES   REMARKS
N.O. AUDUBON     N/A     58  55  91 MISG        N/A
6HR MIN TEMP:  56; 6HR MAX TEMP:  66;

N.O. INTL ARPT CLEAR     56  51  84 NW6       30.05S
6HR MIN TEMP:  54; 6HR MAX TEMP:  67;

N.O. LAKEFRONT CLEAR     67  49  52 N12       30.05S
6HR MIN TEMP:  67; 6HR MAX TEMP:  71;

N.O. DOWNTOWN* FAIR      66  43  42 N3        30.05S
6HR MIN TEMP:  66; 6HR MAX TEMP:  70;

SLIDELL        CLEAR     47  43  86 N3        30.05S
6HR MIN TEMP:  47; 6HR MAX TEMP:  59;

BATON ROUGE    CLEAR     50  47  89 CALM      30.07S
6HR MIN TEMP:  50; 6HR MAX TEMP:  61;

BOOTHVILLE     CLEAR     64  51  62 N3        30.03F
6HR MIN TEMP:  61; 6HR MAX TEMP:  67;

BELLE CHASSE   CLEAR     50  46  86 CALM      30.04F
6HR MIN TEMP:  50; 6HR MAX TEMP:  57;

BOGALUSA*        N/A     46  43  88 CALM      30.07S
6HR MIN TEMP:  46; 6HR MAX TEMP:  59;

NEW ROADS*     FAIR      48  47  94 NW3       30.08R
6HR MIN TEMP:  48; 6HR MAX TEMP:  63;

GONZALES*      FAIR      51  51 100 CALM      30.06F
6HR MIN TEMP:  51; 6HR MAX TEMP:  60;

HAMMOND*       CLEAR     48  45  87 CALM      30.07F
HOUMA*         CLEAR     54  50  85 NW5       30.06S
6HR MIN TEMP:  50; 6HR MAX TEMP:  61;

PORT FOURCHON* CLEAR     64  52  63 N7        30.07F

$$

LAZ041-044-053-054-310700-
SOUTHWEST LOUISIANA

CITY           SKY/WX    TMP DP  RH WIND       PRES   REMARKS
LAKE CHARLES   CLEAR     53  50  89 CALM      30.08F
6HR MIN TEMP:  52; 6HR MAX TEMP:  62;

LAFAYETTE      CLEAR     53  51  93 CALM      30.08F
6HR MIN TEMP:  53; 6HR MAX TEMP:  63;

PATTERSON      CLEAR     54  52  94 CALM      30.09F
6HR MIN TEMP:  54; 6HR MAX TEMP:  66;

SALT POINT       N/A     60  51  72 N5        30.06F
6HR MIN TEMP:  60; 6HR MAX TEMP:  66;

NEW IBERIA     CLEAR     52  48  86 CALM      30.08F
6HR MIN TEMP:  51; 6HR MAX TEMP:  64;

CHENAULT AIRPK CLEAR     53  51  92 CALM      30.09S
6HR MIN TEMP:  53; 6HR MAX TEMP:  65;


$$

LAZ027-028-310700-
CENTRAL LOUISIANA

CITY           SKY/WX    TMP DP  RH WIND       PRES   REMARKS
FORT POLK      PTCLDY    51  49  92 N2        30.09S
6HR MIN TEMP:  51; 6HR MAX TEMP:  59;

ALEXANDRIA INT MOCLDY    50  48  93 CALM      30.08S
6HR MIN TEMP:  48; 6HR MAX TEMP:  59;

ALEXANDRIA     MOCLDY    49  47  93 CALM      30.09S
6HR MIN TEMP:  48; 6HR MAX TEMP:  57;


$$

LAZ001-002-310700-
NORTHWEST LOUISIANA

CITY           SKY/WX    TMP DP  RH WIND       PRES   REMARKS
SHREVEPORT     CLEAR     52  48  86 SW3       30.08F
6HR MIN TEMP:  52; 6HR MAX TEMP:  63;

BARKSDALE AFB  CLEAR     51  48  92 CALM      30.09S
6HR MIN TEMP:  51; 6HR MAX TEMP:  62;

DTN SHREVEPORT CLEAR     55  50  83 CALM      30.09S
6HR MIN TEMP:  54; 6HR MAX TEMP:  62;


$$

LAZ014-016-310700-
NORTHEAST LOUISIANA

CITY           SKY/WX    TMP DP  RH WIND       PRES   REMARKS
MONROE         CLEAR     52  49  89 CALM      30.07F
6HR MIN TEMP:  51; 6HR MAX TEMP:  60;

TALLULAH       PTCLDY    47  45  93 CALM      30.06F
6HR MIN TEMP:  44; 6HR MAX TEMP:  54;


$$




USA.gov is the U.S. government's official web portal to all federal, state and local government web resources and services.